Date String (YYYY-MM-DD hh:mm:ss) UTC,Instrument flags,absolute air pressure of the measurement (hPa),sample flow rate (lpm),inlet stack bypass flow (lpm),air temperature of the measurement (°C),ambient temperature measured by the external sensor (°C),aerosol sample conditioner tube jacket temperature (°C),OPC LED temperature (°C),internal box temperature (°C),relative humidity of the measurement (%),span deviation,mass concentration of particles derived from Lorenz-Mie calculation of OPC scattering (μg/m³),mass concentration of particles derived from Lorenz-Mie calculation of OPC scattering (μg/m³),mass concentration of particles derived from Lorenz-Mie calculation of OPC scattering (μg/m³)
DateTimeUTC,F1_M11,P_M11,Q1_M11,Q2_M11,T1_M11,T2_M11,T3_M11,T4_M11,T5_M11,U1_M11,ZSPAN_M11,X2_M11,X0_M11,X1_M11
2023-07-09 01:00:00,SystemResetWarning,0830.0,5.00,000.00,032.0,026.4,000.0,039.8,031.3,34.6,-000.1,0006.57,0010.13,0005.97
2023-07-09 01:01:00,SystemResetWarning,0829.8,4.97,000.00,031.9,026.8,000.0,039.8,031.4,35.0,-000.4,0006.52,0010.04,0005.94
2023-07-09 01:02:00,SystemResetWarning,0829.8,5.04,000.00,032.0,027.1,000.0,039.8,031.6,35.2,-000.6,0006.51,0010.21,0005.91
2023-07-09 01:03:00,SystemResetWarning,0829.7,4.98,000.00,032.2,027.4,000.0,039.9,031.8,34.0,-000.0,0006.53,0010.09,0005.91
2023-07-09 01:04:00,SystemResetWarning,0829.6,5.01,000.00,032.3,027.7,000.0,039.9,031.8,33.7,0000.6,0006.51,0010.20,0005.89
2023-07-09 01:05:00,SystemResetWarning,0829.6,5.01,000.00,032.4,027.9,000.0,039.9,031.8,34.3,0000.9,0006.53,0010.26,0005.89
2023-07-09 01:06:00,SystemResetWarning,0829.6,5.00,000.00,032.4,028.1,000.0,040.0,031.9,34.2,0001.0,0006.51,0010.23,0005.88
2023-07-09 01:07:00,SystemResetWarning,0829.7,5.00,000.00,032.4,028.3,000.0,040.0,031.9,33.8,0000.7,0006.53,0010.33,0005.89
2023-07-09 01:08:00,SystemResetWarning,0829.7,5.00,000.00,032.4,028.4,000.0,040.1,032.0,33.6,0000.5,0006.53,0010.30,0005.89
2023-07-09 01:09:00,SystemResetWarning,0829.8,4.98,000.00,032.4,027.6,000.0,040.0,032.0,33.8,0000.2,0006.52,0010.30,0005.88
2023-07-09 01:10:00,SystemResetWarning,0829.9,5.00,000.00,032.4,025.9,000.0,039.9,031.8,34.0,-000.2,0006.50,0010.25,0005.87
2023-07-09 01:11:00,SystemResetWarning,0830.0,5.01,000.00,032.3,025.0,000.0,039.8,031.5,34.4,0000.2,0006.49,0010.29,0005.87
2023-07-09 01:12:00,SystemResetWarning,0830.1,5.01,000.00,032.1,025.1,000.0,039.8,031.2,34.7,0000.8,0006.57,0010.88,0005.91
2023-07-09 01:13:00,SystemResetWarning,0830.1,4.99,000.00,031.9,025.5,000.0,039.8,031.2,35.3,0000.9,0006.56,0010.72,0005.95
2023-07-09 01:14:00,SystemResetWarning,0830.1,5.02,000.00,031.9,026.0,000.0,039.9,031.3,35.5,0000.6,0006.57,0010.77,0005.96
2023-07-09 01:15:00,SystemResetWarning,0830.1,5.00,000.00,032.1,026.4,000.0,039.9,031.5,35.2,0000.3,0006.56,0010.69,0005.98
2023-07-09 01:16:00,SystemResetWarning,0830.2,4.99,000.00,032.4,026.8,000.0,039.9,031.7,34.5,0000.1,0006.57,0011.18,0006.02
2023-07-09 01:17:00,SystemResetWarning,0830.2,5.00,000.00,032.5,027.2,000.0,039.9,031.8,34.0,0000.2,0006.61,0011.45,0006.06
2023-07-09 01:18:00,SystemResetWarning,0830.2,5.02,000.00,032.6,027.5,000.0,040.0,031.8,33.9,0000.4,0006.63,0011.59,0006.08
2023-07-09 01:19:00,SystemResetWarning,0830.2,5.00,000.00,032.7,027.7,000.0,040.0,031.9,33.8,0000.7,0006.64,0012.14,0006.10
2023-07-09 01:20:00,SystemResetWarning,0830.1,5.00,000.00,032.7,027.9,000.0,040.1,031.9,34.1,0000.9,0006.65,0012.38,0006.11
2023-07-09 01:21:00,SystemResetWarning,0830.1,5.00,000.00,032.7,028.1,000.0,040.2,031.9,34.3,0000.9,0006.66,0012.46,0006.11
2023-07-09 01:22:00,SystemResetWarning,0830.1,4.99,000.00,032.6,028.3,000.0,040.2,032.0,33.3,0000.7,0006.67,0012.57,0006.09
2023-07-09 01:23:00,SystemResetWarning,0830.2,5.00,000.00,032.6,028.4,000.0,040.3,032.0,32.8,0000.4,0006.62,0012.12,0006.06
2023-07-09 01:24:00,SystemResetWarning,0830.2,5.00,000.00,032.6,028.3,000.0,040.3,032.1,32.1,0000.4,0006.62,0012.08,0006.04
2023-07-09 01:25:00,SystemResetWarning,0830.3,4.99,000.00,032.6,026.7,000.0,040.2,031.9,31.9,0000.3,0006.61,0011.98,0006.03
2023-07-09 01:26:00,SystemResetWarning,0830.2,5.00,000.00,032.5,025.3,000.0,040.1,031.7,31.9,0000.1,0006.60,0012.24,0006.00
2023-07-09 01:27:00,SystemResetWarning,0830.2,5.00,000.00,032.4,025.0,000.0,040.0,031.5,32.2,0000.1,0006.56,0012.11,0005.95
2023-07-09 01:28:00,SystemResetWarning,0830.3,5.01,000.00,032.2,025.3,000.0,040.0,031.2,32.7,0000.2,0006.49,0011.78,0005.91
2023-07-09 01:29:00,SystemResetWarning,0830.2,5.00,000.00,032.0,025.7,000.0,040.0,031.3,33.1,-000.0,0006.44,0012.08,0005.88
2023-07-09 01:30:00,SystemResetWarning,0830.2,4.99,000.00,031.9,026.2,000.0,040.0,031.3,33.4,0000.1,0006.42,0011.77,0005.85
2023-07-09 01:31:00,SystemResetWarning,0830.3,5.00,000.00,031.8,026.6,000.0,040.0,031.4,33.5,-000.0,0006.41,0011.51,0005.84
2023-07-09 01:32:00,SystemResetWarning,0830.2,5.00,000.00,031.7,027.0,000.0,040.0,031.5,33.6,0000.3,0006.44,0011.57,0005.85
2023-07-09 01:33:00,SystemResetWarning,0830.2,5.01,000.00,031.7,027.3,000.0,040.0,031.5,33.6,0000.5,0006.48,0012.10,0005.89
2023-07-09 01:34:00,SystemResetWarning,0830.3,5.00,000.00,031.6,027.6,000.0,039.9,031.6,33.7,0000.6,0006.49,0012.09,0005.91
2023-07-09 01:35:00,SystemResetWarning,0830.3,5.00,000.00,031.6,027.8,000.0,039.9,031.6,33.9,0001.1,0006.49,0012.16,0005.92
2023-07-09 01:36:00,SystemResetWarning,0830.3,5.00,000.00,031.6,028.0,000.0,039.9,031.7,33.9,0001.2,0006.48,0012.11,0005.92
2023-07-09 01:37:00,SystemResetWarning,0830.3,4.99,000.00,031.5,028.1,000.0,039.9,031.7,33.8,0001.2,0006.51,0012.12,0005.95
2023-07-09 01:38:00,SystemResetWarning,0830.3,4.99,000.00,031.5,028.3,000.0,039.9,031.7,33.8,0001.3,0006.52,0011.53,0005.97
2023-07-09 01:39:00,SystemResetWarning,0830.3,5.00,000.00,031.5,028.4,000.0,039.8,031.7,33.9,0001.1,0006.60,0011.71,0006.01
2023-07-09 01:40:00,SystemResetWarning,0830.3,5.01,000.00,031.5,028.3,000.0,039.8,031.8,33.9,0001.3,0006.64,0011.39,0006.03
2023-07-09 01:41:00,SystemResetWarning,0830.3,4.99,000.00,031.5,026.7,000.0,039.6,031.7,33.9,0001.1,0006.67,0011.37,0006.07
2023-07-09 01:42:00,SystemResetWarning,0830.3,5.01,000.00,031.4,025.8,000.0,039.5,031.6,34.0,0001.3,0006.71,0011.40,0006.09
2023-07-09 01:43:00,SystemResetWarning,0830.3,5.01,000.00,031.2,025.7,000.0,039.4,031.2,34.3,0000.9,0006.71,0011.38,0006.12
2023-07-09 01:44:00,SystemResetWarning,0830.3,5.00,000.00,031.1,026.1,000.0,039.4,031.2,34.6,0000.5,0006.73,0010.84,0006.13
2023-07-09 01:45:00,SystemResetWarning,0830.3,4.99,000.00,031.0,026.5,000.0,039.4,031.2,34.8,0000.4,0006.74,0010.73,0006.14
2023-07-09 01:46:00,SystemResetWarning,0830.3,5.00,000.00,030.9,026.8,000.0,039.4,031.3,34.9,-000.1,0006.76,0010.66,0006.18
2023-07-09 01:47:00,SystemResetWarning,0830.3,4.98,000.00,030.9,027.2,000.0,039.4,031.4,35.0,-000.3,0006.78,0010.59,0006.20
2023-07-09 01:48:00,SystemResetWarning,0830.3,5.04,000.00,030.9,027.5,000.0,039.4,031.4,35.0,0000.0,0006.82,0010.31,0006.23
2023-07-09 01:49:00,SystemResetWarning,0830.3,4.96,000.00,031.1,027.7,000.0,039.4,031.6,34.6,-000.0,0006.88,0010.44,0006.28
2023-07-09 01:50:00,SystemResetWarning,0830.3,5.01,000.00,031.1,027.9,000.0,039.3,031.6,34.4,-000.2,0006.86,0010.31,0006.29
2023-07-09 01:51:00,SystemResetWarning,0830.3,5.01,000.00,031.2,028.1,000.0,039.3,031.7,34.2,-000.2,0006.89,0010.23,0006.33
2023-07-09 01:52:00,SystemResetWarning,0830.4,5.01,000.00,031.2,028.2,000.0,039.4,031.7,34.2,0000.2,0006.91,0010.02,0006.36
2023-07-09 01:53:00,SystemResetWarning,0830.4,4.98,000.00,031.2,028.3,000.0,039.4,031.7,34.3,-000.4,0006.98,0010.06,0006.41
2023-07-09 01:54:00,SystemResetWarning,0830.4,5.00,000.00,031.2,027.2,000.0,039.3,031.7,34.3,-000.5,0007.01,0010.21,0006.45
2023-07-09 01:55:00,SystemResetWarning,0830.4,5.00,000.00,031.2,026.0,000.0,039.2,031.5,34.6,0000.1,0007.03,0010.60,0006.47
2023-07-09 01:56:00,SystemResetWarning,0830.5,5.01,000.00,031.1,025.7,000.0,039.1,031.2,34.6,0000.5,0007.03,0010.57,0006.49
2023-07-09 01:57:00,SystemResetWarning,0830.5,5.01,000.00,030.9,026.0,000.0,039.1,031.1,34.9,0000.8,0007.04,0010.61,0006.50
2023-07-09 01:58:00,SystemResetWarning,0830.6,4.98,000.00,030.9,026.3,000.0,039.2,031.1,35.2,0001.1,0007.08,0010.76,0006.52
2023-07-09 01:59:00,SystemResetWarning,0830.7,5.03,000.00,031.0,026.7,000.0,039.2,031.3,34.9,0000.9,0007.08,0010.78,0006.52
